Wetbulb
56.15 56.11 56.13 56.10 56.25 56.53 56.61 56.76 56.80 56.99 57.05 57.13 57.18 57.14 57.30 57.42 57.21 54.54 49.09 54.63 55.51 63.75 69.09 63.86 68.57 66.00 68.63 66.81 68.77 66.53 53.95 53.03 54.49 55.93 57.96 62.98 62.14 66.68 67.92 65.03 66.62 66.84 62.32 64.12 65.57
56.13 55.96 56.03 56.13 56.35 56.34 56.42 56.37 56.48 56.66 56.87 56.83 56.71 56.87 56.98 57.00 53.02 50.41 56.84 62.69 63.42 67.54 66.64 63.43 62.19 62.60 64.00 64.48 66.53 63.09 52.91 55.14 59.10 60.30 60.02 62.46 63.41 65.30 63.94 64.26 63.75 61.43 63.76 65.09 64.73
55.68 55.78 55.71 55.88 55.96 56.08 56.29 56.35 56.43 56.40 56.35 56.39 56.58 56.87 57.14 55.97 50.07 51.72 65.48 63.58 66.87 69.65 65.44 63.71 62.29 57.66 60.17 62.39 63.73 63.32 55.91 60.62 60.79 63.55 63.45 62.50 63.16 65.04 63.64 61.79 63.80 59.59 61.46 63.08 62.70
55.50 55.62 55.45 55.54 55.74 55.91 56.09 56.23 56.35 56.28 56.09 56.07 56.18 57.46 56.46 53.25 43.21 57.00 71.10 65.53 67.95 62.80 58.55 56.85 56.40 52.51 52.58 54.97 60.78 59.48 63.30 63.65 63.80 64.44 63.60 62.27 63.92 63.62 64.71 64.44 66.52 63.17 63.33 62.39 61.93
55.55 55.89 56.25 55.99 55.75 55.87 56.02 56.09 55.93 55.80 55.79 55.80 55.85 57.05 51.86 44.52 45.55 55.49 70.24 65.59 64.47 59.12 55.48 52.99 51.29 51.91 50.52 54.13 57.78 59.41 62.05 63.24 65.03 64.91 64.68 64.18 63.48 64.14 64.23 66.97 66.70 64.11 63.21 61.97 62.94
55.59 56.05 56.05 55.96 56.19 56.27 56.27 55.87 55.43 55.40 56.15 55.72 56.01 56.88 48.56 39.88 51.64 56.60 61.95 61.77 60.15 56.71 52.82 51.47 51.39 53.13 52.37 53.00 56.38 59.59 60.81 61.61 62.49 62.35 62.14 61.87 63.03 64.00 65.04 66.83 65.10 63.61 62.20 62.61 63.96
55.83 55.81 55.69 55.77 55.89 55.97 55.66 55.08 54.98 56.37 58.58 55.98 57.05 55.11 49.32 46.01 55.22 55.87 57.47 58.04 60.02 56.27 51.73 53.42 51.97 53.00 51.13 52.18 56.89 56.51 55.23 56.36 59.16 60.96 60.61 62.92 57.72 59.59 65.61 65.67 64.23 63.28 63.23 64.01 65.58
55.36 55.70 55.47 55.49 55.55 55.02 54.33 54.02 55.01 58.06 56.94 57.03 59.25 54.97 46.68 55.66 56.17 56.87 54.22 53.40 59.39 56.95 53.08 53.59 52.42 51.39 49.58 53.08 51.45 52.11 51.54 47.52 56.45 59.98 61.41 60.67 52.94 62.90 65.16 63.86 63.17 64.12 64.12 64.66 65.39
55.11 55.21 55.06 55.05 54.62 54.04 53.11 53.70 55.72 58.64 59.09 59.25 53.40 50.41 46.10 59.54 53.57 53.91 55.00 53.60 57.03 55.51 54.47 56.38 50.47 46.32 48.99 46.37 43.05 44.38 43.41 49.24 52.95 59.70 60.28 59.40 56.92 62.80 65.10 63.66 62.61 63.52 64.35 64.91 65.41
54.57 54.39 54.41 54.12 53.62 53.06 52.47 53.94 54.83 58.25 57.70 57.81 56.85 45.48 47.68 45.59 48.14 49.64 52.61 56.31 54.07 54.23 51.50 49.28 46.02 42.03 42.05 41.37 39.71 41.17 44.56 47.37 49.22 55.11 59.68 57.10 56.16 62.02 63.86 63.47 62.89 63.48 64.24 64.66 65.02
54.34 54.06 53.67 53.28 52.92 52.20 50.08 42.37 40.20 38.19 40.60 36.96 39.79 44.44 45.09 47.53 49.57 47.88 48.88 52.59 53.02 49.15 43.11 45.89 40.95 39.89 42.40 45.73 46.44 47.25 48.01 48.78 52.24 55.94 55.34 56.26 57.51 60.88 62.52 62.80 62.72 62.93 63.46 64.21 64.67
54.02 53.52 53.24 52.49 52.19 52.05 46.03 41.65 42.24 41.91 35.02 42.97 43.19 42.67 45.06 45.20 43.27 46.61 49.11 48.10 49.70 44.38 46.51 42.81 40.36 44.78 46.42 46.72 46.33 45.49 44.39 46.32 51.45 54.41 52.26 51.63 55.77 61.17 61.97 62.00 62.98 62.80 63.18 63.88 64.78
53.63 53.21 52.53 51.82 51.31 47.42 43.27 43.52 44.53 40.53 32.98 39.20 42.62 43.11 44.14 43.28 42.76 45.24 48.00 46.08 44.75 46.21 45.61 43.55 45.56 48.76 47.52 45.58 44.52 44.53 43.54 45.38 47.69 51.55 52.57 52.54 53.69 57.00 61.75 63.00 63.69 64.12 64.41 64.88 64.79
53.34 52.88 51.73 51.29 45.18 43.82 44.43 45.40 46.01 42.66 29.32 37.11 40.70 43.64 43.98 45.29 41.75 48.97 49.74 46.18 44.92 44.40 47.14 45.44 50.04 48.85 45.88 45.73 46.63 41.28 48.16 49.14 48.66 48.36 42.19 49.83 46.43 55.85 59.25 59.92 61.85 62.86 63.64 64.53 65.16
52.98 52.21 51.05 50.55 41.66 42.22 45.60 46.01 45.16 40.61 23.50 41.95 40.57 46.90 42.91 41.43 42.95 44.80 49.78 46.50 42.09 42.06 42.61 44.37 46.82 47.19 45.82 46.80 49.21 45.68 49.40 48.40 48.53 44.24 42.19 45.48 43.78 51.05 58.88 57.44 59.90 62.18 63.69 65.06 65.77
52.34 51.18 50.81 46.20 43.28 44.94 46.90 43.81 40.51 30.85 24.91 37.74 40.52 39.33 38.80 40.30 41.76 44.43 44.53 47.22 47.28 43.23 44.50 44.05 48.84 49.46 49.14 51.26 51.23 51.52 47.78 46.33 44.82 42.00 39.12 44.53 43.26 41.79 53.53 57.48 59.91 62.43 63.66 65.06 65.68
51.02 49.88 49.35 49.44 41.26 45.90 45.27 39.69 29.64 24.56 37.97 34.51 33.83 36.94 35.52 36.86 38.69 39.85 38.83 39.80 36.21 33.55 35.34 42.82 44.52 48.17 51.23 48.05 50.29 49.72 43.18 34.95 35.03 34.94 38.27 44.57 41.76 46.61 54.37 59.66 60.78 61.65 62.97 64.22 64.29
49.73 48.96 48.30 50.22 47.71 46.88 40.33 34.57 24.59 33.56 31.74 35.94 35.76 35.29 33.24 36.88 36.60 38.09 35.61 33.93 40.21 37.76 33.74 31.49 36.63 45.60 48.69 48.61 47.08 47.18 44.98 36.31 30.62 33.57 39.65 41.93 38.53 43.29 53.15 60.52 62.41 63.24 63.64 63.63 62.38
49.25 43.82 44.62 46.92 48.94 43.78 36.95 26.47 27.14 30.04 35.16 34.61 33.87 30.04 30.75 35.88 34.66 35.12 33.78 34.29 39.63 39.33 32.86 31.58 33.45 42.42 49.39 50.03 51.25 45.95 44.45 46.10 36.82 32.46 35.24 41.85 39.66 45.33 49.28 55.83 59.98 61.49 62.61 62.24 62.32
43.51 39.83 42.04 48.84 45.21 39.58 32.96 29.93 30.12 37.09 37.27 35.25 28.09 31.36 27.59 31.19 31.55 31.76 32.19 37.98 37.86 40.22 40.85 36.23 30.04 39.49 45.91 49.82 50.77 49.51 48.72 40.78 36.25 32.10 31.70 35.01 37.34 41.62 45.04 48.17 53.43 59.69 60.87 62.26 63.05
39.56 37.42 44.97 49.07 41.48 34.99 27.88 28.29 34.02 39.34 39.69 34.15 31.22 29.83 29.80 29.50 32.02 31.19 32.30 37.45 39.89 38.59 40.24 38.27 35.16 36.11 42.33 43.07 43.91 45.12 44.75 44.80 43.70 36.70 36.44 30.21 39.44 43.99 46.13 47.72 49.01 57.24 60.86 61.51 62.71
36.86 30.71 44.68 43.37 34.71 30.50 28.23 32.99 39.57 36.48 39.00 36.52 35.73 33.46 30.76 32.67 30.84 31.37 32.94 36.13 41.71 41.07 35.34 38.43 36.86 33.86 37.01 43.27 44.82 48.72 44.42 40.66 43.13 36.76 33.59 34.62 40.16 47.22 47.52 48.14 50.28 54.34 59.32 62.13 64.14
37.97 34.78 44.25 42.80 30.05 29.35 33.15 36.40 38.11 36.13 36.20 36.28 34.91 35.05 33.46 31.72 28.03 33.64 35.52 40.86 42.06 38.75 36.38 38.30 36.22 27.66 33.83 37.82 43.45 41.22 47.62 43.58 42.92 38.06 36.51 39.72 41.48 46.81 47.27 48.65 48.68 49.71 56.55 60.51 63.87
38.48 32.02 36.50 36.93 36.32 30.97 31.90 33.68 35.31 42.12 39.67 38.37 36.31 35.38 31.44 30.63 32.21 30.71 33.78 38.94 40.75 39.67 43.42 42.24 35.57 28.94 27.77 31.71 36.22 35.96 40.16 45.67 42.27 36.92 38.79 40.86 44.44 47.15 47.66 47.31 48.76 50.29 53.74 59.14 62.98
35.69 31.43 34.94 29.27 31.81 32.28 34.60 34.33 34.94 35.30 40.24 39.82 34.21 34.36 30.75 25.69 28.10 29.02 33.92 36.89 38.72 41.11 39.43 37.96 30.49 30.15 32.19 34.13 35.12 35.72 37.29 40.25 39.95 42.63 40.95 41.14 40.64 45.54 46.84 46.97 51.34 53.34 52.41 52.98 60.82
35.62 34.34 34.41 36.24 37.35 34.46 34.87 33.18 34.64 35.92 36.75 36.12 35.17 36.84 36.98 27.59 29.31 27.99 32.07 33.70 34.68 37.75 35.89 37.67 31.46 30.44 29.89 36.43 36.06 35.90 41.99 44.53 44.65 44.05 42.53 42.22 42.83 45.48 49.71 55.36 57.57 53.44 52.25 56.09 61.17
40.77 42.00 40.08 38.21 36.82 35.35 34.89 36.46 36.21 37.98 39.70 40.34 38.50 36.64 33.68 34.62 36.44 35.59 35.87 38.06 37.93 36.23 34.29 34.01 31.88 27.25 25.72 37.30 41.00 38.53 41.51 44.55 45.39 45.10 44.41 41.10 44.42 50.65 54.53 57.81 58.59 59.64 54.24 55.35 60.49
MSLP
1018.72 1018.18 1017.60 1017.05 1016.49 1016.01 1015.59 1015.06 1014.54 1013.98 1013.54 1013.17 1012.90 1012.66 1012.43 1012.20 1011.84 1011.48 1010.42 1007.89 1007.68 1007.36 1007.62 1008.43 1009.21 1009.38 1009.65 1009.89 1009.56 1009.70 1010.29 1009.88 1009.06 1008.81 1008.91 1008.50 1008.32 1008.00 1008.18 1008.55 1008.74 1009.16 1010.21 1011.27 1012.69
1018.63 1018.02 1017.44 1016.84 1016.22 1015.66 1015.15 1014.68 1014.23 1013.71 1013.20 1012.90 1012.65 1012.38 1012.13 1011.96 1011.63 1010.02 1006.04 1006.21 1006.92 1007.08 1007.49 1008.03 1008.80 1009.34 1009.61 1009.54 1009.46 1009.47 1009.61 1008.66 1007.74 1008.02 1008.09 1008.15 1008.29 1008.02 1008.56 1008.57 1009.20 1009.96 1010.54 1011.84 1012.83
1018.52 1017.93 1017.28 1016.58 1015.96 1015.37 1014.75 1014.18 1013.64 1013.25 1012.87 1012.50 1012.32 1012.08 1011.86 1011.81 1010.99 1006.29 1003.92 1005.12 1005.87 1006.46 1006.93 1007.49 1008.21 1008.84 1009.44 1009.34 1009.13 1008.76 1008.26 1007.57 1007.02 1006.81 1006.87 1007.44 1007.71 1008.13 1008.44 1008.54 1008.64 1009.47 1010.83 1011.58 1012.63
1018.38 1017.72 1017.03 1016.31 1015.64 1015.02 1014.33 1013.60 1013.02 1012.56 1012.35 1012.13 1011.98 1011.70 1011.66 1011.68 1008.75 1004.38 1003.70 1004.56 1005.68 1006.35 1006.78 1007.39 1008.21 1008.69 1008.96 1008.84 1008.48 1008.18 1006.96 1007.09 1006.50 1006.40 1006.72 1007.02 1007.07 1007.41 1008.18 1007.67 1007.85 1009.14 1010.01 1010.72 1011.95
1018.30 1017.52 1016.73 1015.95 1015.22 1014.43 1013.68 1012.98 1012.53 1011.93 1011.70 1011.66 1011.58 1011.40 1011.63 1010.83 1007.21 1004.46 1004.43 1005.03 1005.92 1006.38 1006.43 1006.82 1007.61 1008.16 1008.15 1008.06 1008.25 1007.53 1006.42 1006.35 1006.42 1006.20 1006.10 1006.11 1006.51 1006.87 1007.32 1007.62 1008.48 1009.61 1010.59 1011.19 1011.82
1018.20 1017.44 1016.57 1015.65 1014.82 1013.85 1012.94 1012.26 1011.94 1011.35 1011.04 1011.19 1011.41 1011.52 1011.50 1009.68 1005.33 1005.07 1004.62 1005.45 1005.71 1005.99 1006.36 1006.56 1006.70 1007.10 1007.46 1007.43 1007.34 1006.31 1006.45 1006.12 1005.76 1005.25 1005.20 1005.33 1006.07 1006.38 1007.08 1008.10 1009.16 1009.81 1010.50 1010.97 1011.48
1018.05 1017.25 1016.36 1015.40 1014.56 1013.51 1012.51 1011.51 1011.31 1010.81 1010.24 1010.75 1011.13 1011.37 1011.14 1007.44 1005.52 1005.69 1005.76 1005.52 1005.48 1005.51 1006.01 1006.09 1006.42 1006.79 1006.90 1007.02 1006.46 1006.61 1006.76 1006.11 1005.21 1004.57 1004.72 1004.80 1006.04 1006.47 1007.40 1008.42 1009.31 1009.91 1010.60 1011.16 1011.53
1018.09 1017.10 1016.17 1015.17 1014.24 1013.21 1012.20 1011.06 1010.86 1010.42 1010.34 1010.60 1010.85 1010.94 1009.78 1006.90 1006.15 1005.72 1005.70 1005.76 1005.83 1005.98 1006.08 1006.06 1006.56 1006.88 1006.91 1006.51 1005.98 1006.05 1006.52 1006.44 1004.83 1004.59 1004.41 1004.59 1005.60 1006.65 1007.27 1007.99 1009.34 1010.16 1010.48 1010.80 1010.98
1017.98 1017.09 1016.02 1014.98 1014.00 1013.05 1011.75 1010.73 1010.43 1010.41 1010.44 1010.61 1010.86 1010.80 1008.37 1006.33 1006.23 1005.34 1005.36 1005.14 1005.54 1006.23 1006.42 1006.35 1006.94 1007.10 1007.09 1007.17 1007.07 1006.42 1006.13 1005.61 1004.61 1003.96 1004.13 1004.45 1005.42 1006.62 1007.35 1007.91 1008.72 1009.59 1010.01 1010.34 1010.78
1017.69 1016.94 1015.84 1014.74 1013.76 1012.90 1011.42 1010.20 1010.04 1010.49 1010.64 1010.60 1010.39 1010.67 1008.30 1006.97 1006.09 1005.45 1004.83 1004.80 1005.15 1006.00 1006.98 1006.93 1006.96 1007.04 1007.24 1007.28 1006.41 1006.44 1006.00 1005.10 1004.33 1003.75 1003.85 1004.43 1005.03 1006.18 1006.84 1007.75 1008.20 1008.90 1009.34 1009.69 1009.83
1017.76 1016.85 1015.99 1014.69 1013.80 1012.95 1011.72 1010.61 1011.02 1010.93 1010.53 1010.89 1010.22 1010.20 1008.37 1006.79 1005.81 1005.70 1005.06 1004.76 1004.83 1005.87 1006.48 1006.52 1006.91 1005.91 1005.00 1005.63 1006.21 1005.87 1005.54 1004.81 1003.63 1003.64 1003.73 1004.19 1004.79 1005.74 1006.35 1007.53 1008.44 1008.43 1008.61 1009.03 1009.26
1017.84 1016.79 1016.00 1014.50 1013.68 1012.89 1012.43 1012.59 1013.02 1013.48 1011.79 1009.77 1009.40 1009.34 1007.98 1007.16 1006.56 1006.04 1005.37 1005.35 1005.29 1005.43 1005.98 1006.44 1005.28 1004.60 1005.77 1006.02 1006.18 1005.85 1005.46 1004.80 1003.57 1003.44 1003.70 1003.84 1004.40 1004.73 1005.78 1005.96 1006.44 1006.91 1007.69 1008.26 1008.92
1017.52 1016.75 1015.49 1014.31 1013.44 1012.78 1013.18 1012.62 1012.72 1013.01 1013.02 1010.43 1009.27 1008.71 1007.81 1007.25 1007.04 1006.89 1006.58 1005.98 1005.88 1005.49 1005.33 1005.00 1004.09 1004.80 1005.12 1005.26 1005.48 1005.20 1004.97 1004.74 1003.95 1003.57 1003.50 1003.97 1004.24 1004.38 1005.31 1006.26 1007.12 1007.31 1006.89 1007.63 1007.69
1017.11 1016.35 1015.58 1014.17 1013.50 1013.82 1012.96 1012.18 1012.17 1012.29 1012.64 1010.54 1009.22 1008.77 1008.03 1007.05 1007.25 1007.51 1007.26 1006.98 1006.17 1005.43 1005.34 1004.72 1003.79 1003.69 1003.92 1004.04 1004.38 1004.52 1004.19 1004.47 1004.35 1004.49 1004.47 1003.80 1004.56 1004.80 1005.28 1005.78 1006.17 1006.25 1006.49 1006.66 1007.17
1016.87 1015.91 1015.34 1014.66 1014.57 1013.85 1012.71 1011.90 1011.54 1011.98 1011.90 1010.25 1009.60 1009.00 1009.03 1009.26 1009.18 1007.75 1007.75 1007.08 1006.94 1006.47 1005.87 1003.24 1003.04 1003.23 1003.13 1002.32 1003.35 1003.05 1003.83 1004.36 1004.50 1004.80 1004.86 1004.36 1004.81 1004.03 1004.26 1004.94 1004.82 1004.92 1004.73 1005.38 1005.86
1016.70 1015.75 1015.14 1014.80 1014.61 1013.21 1012.22 1011.55 1011.77 1012.59 1011.55 1010.58 1010.29 1009.96 1009.79 1009.91 1009.69 1009.29 1008.83 1008.22 1007.91 1007.19 1005.32 1004.69 1003.09 1002.13 1001.44 1002.22 1002.67 1002.89 1003.62 1004.33 1004.78 1005.30 1004.55 1003.83 1004.38 1003.54 1003.19 1003.20 1003.28 1003.47 1003.35 1003.75 1004.17
1016.38 1015.14 1014.64 1014.23 1013.85 1012.99 1012.09 1012.10 1012.98 1012.76 1011.85 1011.78 1011.52 1010.92 1010.61 1010.73 1010.57 1010.39 1010.45 1010.46 1011.57 1010.04 1007.64 1005.45 1002.89 1002.34 1001.38 1001.54 1002.29 1002.63 1003.46 1004.93 1005.58 1005.39 1003.14 1003.20 1003.46 1002.12 1001.41 1001.16 1001.27 1001.67 1001.73 1002.16 1002.89
1016.14 1014.82 1014.26 1013.95 1013.02 1012.76 1012.91 1013.20 1013.69 1013.17 1012.59 1012.15 1012.06 1011.90 1012.07 1011.92 1011.85 1011.71 1012.11 1012.56 1013.00 1012.48 1011.08 1008.94 1004.60 1001.87 1000.51 1000.08 1000.88 1001.55 1002.43 1003.38 1004.05 1004.07 1003.56 1003.03 1001.51 1000.15 999.92 999.78 999.82 999.87 999.83 1001.65 1002.73
1016.08 1014.98 1014.17 1013.20 1012.65 1012.81 1013.79 1014.55 1014.27 1013.70 1013.18 1012.97 1012.80 1012.68 1013.03 1013.00 1012.86 1012.96 1013.46 1013.65 1013.89 1014.36 1013.56 1011.61 1006.99 1003.53 1000.88 999.93 1000.02 1000.53 1000.85 1002.43 1003.40 1004.16 1003.56 1001.74 1000.98 999.68 998.91 998.82 998.82 998.87 999.67 1000.63 1001.38
1017.47 1016.45 1014.80 1012.92 1012.65 1013.30 1014.62 1014.86 1014.35 1013.71 1013.28 1013.23 1013.44 1013.29 1013.49 1013.52 1013.81 1014.26 1014.34 1013.87 1014.31 1015.27 1014.93 1013.51 1010.79 1005.35 1001.48 999.93 999.41 999.12 1000.47 1001.95 1002.54 1003.29 1002.85 1001.26 1000.07 998.94 998.60 998.51 998.29 998.40 998.78 999.28 999.71
1017.68 1016.72 1014.08 1013.02 1013.01 1014.44 1015.42 1015.16 1014.24 1013.76 1013.40 1013.41 1013.56 1013.82 1013.91 1014.17 1014.44 1014.87 1014.69 1014.37 1014.57 1014.80 1015.25 1014.78 1012.71 1007.01 1004.01 1000.20 998.84 999.21 999.23 1000.03 1001.62 1002.20 1001.92 1000.98 998.54 997.38 997.71 997.68 997.51 997.27 997.27 997.78 998.50
1018.95 1017.88 1014.64 1013.50 1014.78 1016.32 1016.51 1015.84 1014.60 1014.04 1013.61 1013.42 1013.58 1013.88 1014.04 1014.60 1014.72 1014.79 1014.64 1014.58 1014.52 1015.08 1015.25 1015.13 1013.39 1010.07 1005.64 1001.25 1000.57 999.18 999.39 999.82 1000.14 1000.87 1001.01 1000.37 997.52 996.03 996.02 996.35 996.40 996.30 996.26 996.59 997.07
1020.05 1018.80 1015.76 1015.11 1017.39 1018.11 1017.53 1016.47 1015.18 1014.49 1013.89 1013.67 1013.80 1013.91 1014.31 1014.84 1015.12 1014.58 1014.18 1014.04 1014.48 1015.05 1015.28 1015.31 1013.38 1011.27 1006.51 1002.80 1000.51 999.27 999.05 999.01 999.35 999.89 999.97 999.89 996.29 995.90 995.98 995.70 996.37 996.36 995.89 995.93 996.18
1020.76 1019.95 1018.37 1018.11 1018.78 1019.27 1018.85 1017.23 1015.84 1014.55 1013.96 1014.03 1013.86 1013.97 1014.41 1014.82 1014.80 1014.53 1014.12 1013.89 1014.35 1014.53 1014.70 1014.82 1013.65 1012.01 1008.92 1006.09 1004.83 1002.42 1000.58 999.60 999.28 999.50 999.33 997.88 996.59 996.27 995.73 995.69 995.80 996.24 995.91 995.18 995.59
1020.89 1020.95 1020.54 1019.98 1019.76 1019.89 1019.49 1017.99 1016.40 1015.38 1014.61 1014.45 1014.20 1014.44 1014.84 1014.95 1014.56 1014.21 1013.52 1013.37 1014.40 1014.36 1014.72 1014.93 1013.45 1011.89 1009.57 1007.34 1005.76 1003.89 1002.28 1000.65 999.67 998.63 998.21 997.82 997.12 995.74 995.69 995.86 995.72 995.31 994.53 993.62 993.96
1021.04 1020.95 1020.80 1020.37 1020.04 1019.90 1019.09 1017.95 1017.16 1016.27 1015.96 1015.19 1015.19 1014.76 1014.38 1014.53 1014.05 1013.68 1013.37 1012.85 1013.10 1013.87 1014.43 1014.39 1013.04 1011.28 1008.45 1005.70 1004.70 1003.73 1001.97 1000.50 999.68 998.68 998.52 997.84 996.57 995.74 995.98 995.89 996.05 995.23 993.65 992.73 992.79
1020.53 1020.60 1020.66 1020.29 1019.93 1019.70 1018.99 1018.24 1017.48 1017.04 1015.71 1015.14 1015.07 1014.66 1013.96 1013.27 1013.04 1012.76 1012.45 1012.09 1012.21 1012.49 1013.45 1013.72 1012.64 1011.16 1008.30 1005.10 1003.74 1003.70 1002.38 1000.45 999.38 999.82 999.35 998.75 997.63 996.94 996.38 996.31 996.56 995.87 994.27 993.16 992.86
Wind_Speed
20 20 20 20 20 19 19 19 19 19 18 18 17 16 15 13 13 3 10 14 13 13 13 10 7 5 7 5 4 4 2 3 4 5 2 5 5 7 4 10 3 4 7 12 21
21 21 21 21 21 21 20 18 18 18 18 17 16 14 13 11 5 12 15 20 18 15 12 17 13 9 4 5 5 4 3 7 7 10 5 2 1 1 3 8 4 8 17 22 22
22 22 23 23 22 22 21 20 19 17 16 16 13 12 10 5 4 10 6 26 24 19 9 10 11 7 5 3 5 6 6 7 10 8 11 8 8 5 8 4 7 18 23 26 24
24 24 24 25 24 23 22 21 20 18 15 13 11 9 5 2 3 2 9 25 22 14 9 9 7 8 7 9 6 5 11 8 6 11 10 7 6 7 13 6 12 21 26 28 26
25 25 25 25 26 25 24 22 20 19 15 10 7 3 0 1 12 6 11 20 16 15 14 11 11 7 8 8 5 16 13 6 14 13 12 5 12 8 20 7 18 22 24 25 22
25 25 25 26 26 26 25 23 19 18 14 6 5 7 2 4 3 11 4 16 12 16 10 8 11 8 6 4 15 4 14 16 12 13 7 13 8 6 2 18 20 23 24 23 22
25 25 26 26 26 27 26 26 21 17 9 5 8 4 1 16 8 12 3 5 11 16 16 11 4 11 6 1 14 10 11 8 10 13 5 8 4 7 15 18 21 22 21 20 20
25 25 26 27 27 27 26 26 20 10 8 10 8 3 9 7 6 9 1 2 4 7 4 4 5 5 3 4 6 3 6 3 9 9 8 10 6 14 20 22 20 20 19 19 21
25 25 27 29 28 27 27 25 14 6 8 10 5 3 12 7 7 3 6 6 8 4 5 6 4 4 1 2 5 3 4 6 6 11 6 8 6 17 19 20 22 20 20 19 19
27 26 29 29 29 27 28 20 5 8 5 6 2 1 3 15 11 15 4 4 6 9 3 4 5 5 2 5 12 6 4 5 7 5 13 9 3 20 21 20 22 21 20 20 22
27 27 27 30 28 27 13 6 9 7 7 4 13 4 10 9 7 6 5 2 6 5 8 7 6 20 29 20 4 4 4 5 5 8 8 12 10 20 22 18 18 20 20 20 22
26 27 26 29 28 24 2 6 7 4 11 8 7 6 10 4 4 13 8 2 5 8 7 5 18 21 7 7 12 8 5 6 11 5 5 5 15 20 23 26 26 24 22 21 19
26 27 28 29 31 3 0 3 6 6 1 9 5 5 12 3 1 7 11 5 5 10 14 13 6 15 12 14 13 16 15 8 9 5 3 5 7 17 20 8 13 16 21 19 23
29 28 28 29 4 4 5 4 4 4 5 6 8 7 11 5 7 14 10 3 5 9 14 15 20 13 20 18 15 18 13 14 13 2 4 5 5 8 15 18 19 21 21 21 23
30 31 27 9 3 2 6 9 3 5 3 4 5 2 7 9 9 14 13 5 3 10 6 17 13 17 20 22 18 13 8 9 10 3 3 5 2 7 19 18 23 23 25 23 24
31 31 25 1 1 6 9 5 5 6 4 2 3 8 9 11 5 7 9 5 4 7 15 16 9 16 24 15 16 5 6 5 1 3 12 14 8 7 15 21 23 24 26 25 23
32 32 14 2 1 5 6 6 6 3 6 5 3 7 5 9 7 11 14 17 9 11 8 10 24 15 8 19 13 10 10 2 6 6 15 8 9 13 18 26 27 29 30 26 22
34 26 2 4 6 5 4 7 4 2 1 3 5 5 5 10 4 8 6 4 14 6 3 6 14 21 14 13 18 16 12 7 10 8 12 6 9 8 15 19 28 28 30 20 17
25 6 5 4 3 2 7 4 4 2 3 4 6 3 3 2 2 8 5 2 7 14 7 6 11 15 22 15 19 9 23 9 6 2 3 7 5 7 7 15 18 25 21 21 20
6 5 5 9 2 5 6 5 2 3 4 2 1 2 4 4 4 5 2 2 3 11 11 3 11 10 13 24 17 15 11 11 4 10 10 4 6 8 11 11 12 20 19 22 22
4 6 5 12 3 6 4 6 2 2 3 2 2 3 3 1 3 3 4 5 6 8 5 6 6 14 8 12 28 11 12 8 7 5 11 1 12 9 13 14 15 16 21 22 22
4 4 5 7 6 2 3 7 5 2 3 2 1 5 2 3 4 5 5 4 5 6 3 3 6 8 12 13 18 24 8 8 14 13 1 3 13 4 12 14 19 19 19 20 21
5 4 5 6 4 5 7 6 4 3 4 2 3 5 3 5 3 5 6 4 6 3 0 2 3 6 8 3 5 3 17 9 6 6 11 14 12 6 4 5 12 12 13 14 22
2 5 5 5 3 3 5 5 4 7 3 3 5 3 2 4 6 5 5 5 6 6 11 6 4 8 6 2 6 9 10 9 11 7 8 15 20 16 15 7 7 9 14 18 21
2 2 1 5 2 2 3 5 7 6 5 6 4 4 3 5 5 6 7 5 7 5 2 4 7 8 17 21 18 19 19 17 8 11 15 8 11 16 12 7 8 9 15 20 25
1 2 2 3 3 5 3 2 8 6 4 4 5 16 12 8 10 7 7 6 8 10 4 5 5 5 9 13 18 10 12 14 16 8 6 6 15 3 2 1 8 10 10 11 20
2 0 1 3 2 2 2 3 6 12 7 7 8 13 9 9 9 10 10 12 8 10 8 6 4 3 8 4 1 4 10 9 4 14 3 9 2 10 3 9 11 14 9 15 19
Wind_Direction
351 348 345 341 339 337 333 329 325 321 320 318 319 319 316 312 309 248 236 218 190 236 152 152 180 189 189 192 233 150 102 236 229 183 159 326 347 159 65 153 181 124 135 141 151
349 347 343 339 337 336 333 328 322 317 314 313 316 320 317 314 285 247 225 203 201 193 140 158 177 184 181 189 200 188 183 215 216 159 134 30 320 300 130 161 64 76 104 134 149
348 345 342 339 338 336 331 324 317 311 307 307 312 316 322 313 289 246 238 200 187 182 159 161 147 147 185 161 211 200 208 168 225 151 138 170 213 181 168 216 193 151 144 151 156
348 344 342 339 338 336 330 320 314 309 305 302 304 310 326 253 280 83 21 177 185 170 140 148 143 156 164 199 201 254 235 227 210 201 192 184 200 193 195 247 150 156 155 154 161
345 341 338 336 335 332 327 319 317 310 307 295 279 298 67 289 254 310 50 158 172 169 173 164 161 158 186 196 225 235 256 257 238 262 245 184 189 179 203 116 135 146 157 162 163
341 339 336 335 334 331 326 321 321 313 308 282 240 122 149 257 271 15 141 152 182 168 184 155 186 169 187 221 196 189 244 257 269 260 206 208 183 117 61 136 148 156 165 169 172
339 338 336 334 334 329 326 319 326 321 313 161 189 139 296 242 332 347 324 175 184 184 177 203 172 175 183 101 261 251 279 298 269 259 234 186 150 206 147 147 155 165 167 173 177
339 337 336 334 332 329 324 318 327 331 109 139 175 184 254 262 310 315 190 224 250 221 324 182 127 203 202 307 344 179 156 200 247 208 206 164 212 147 154 152 164 170 173 178 185
338 338 337 332 332 330 324 318 326 111 124 147 125 137 280 281 354 310 200 199 155 196 281 192 124 200 346 231 353 299 209 182 279 196 179 197 140 163 164 165 168 176 179 183 187
337 338 335 331 332 330 322 313 321 120 128 180 168 290 286 317 314 315 292 226 143 135 143 225 167 171 152 148 213 202 204 212 216 218 196 210 180 168 174 177 175 181 186 190 195
335 335 334 328 329 327 338 9 10 354 44 266 273 273 273 269 289 340 315 264 128 130 166 201 186 203 208 208 187 186 202 215 250 198 172 208 199 179 181 177 186 187 193 198 201
331 331 332 324 327 320 353 60 103 263 310 312 259 238 273 277 322 354 6 321 186 191 156 145 218 221 211 186 216 244 245 251 287 210 176 251 215 188 182 191 191 187 194 201 198
332 332 330 325 322 6 349 218 107 130 197 297 273 327 352 354 18 1 21 313 269 217 194 206 229 197 205 203 199 221 223 220 235 57 215 137 257 192 203 198 192 209 207 201 202
333 334 331 330 7 326 296 307 318 160 66 289 351 6 351 354 356 7 2 275 313 234 217 227 236 207 192 217 195 220 211 225 244 129 217 160 237 213 185 197 201 204 209 204 209
331 332 334 326 278 326 291 305 331 65 331 19 17 24 355 60 263 356 327 336 230 276 290 220 199 220 211 210 198 230 165 203 236 197 300 235 111 247 187 202 206 206 214 206 208
330 329 335 76 293 252 295 330 58 48 243 66 73 350 21 28 19 323 8 4 351 307 265 249 274 211 225 221 216 162 167 193 119 123 252 238 175 240 197 207 210 211 214 208 209
330 323 322 214 267 302 320 34 43 133 351 10 320 342 46 0 32 12 16 37 24 2 1 317 243 259 224 209 204 196 141 218 229 198 235 224 195 219 202 208 209 210 214 204 207
330 320 245 237 268 340 39 45 78 343 331 340 348 14 28 15 50 15 24 30 45 47 299 340 252 220 217 210 196 208 199 168 189 200 226 169 216 242 198 217 217 215 215 200 205
329 329 335 287 281 83 59 35 205 313 303 332 327 30 24 348 28 30 355 103 59 27 24 331 277 347 220 211 192 196 213 181 107 335 148 212 237 300 189 225 205 218 211 202 201
324 350 285 322 54 59 81 226 196 0 321 327 96 1 343 333 51 53 305 16 66 29 7 301 297 262 282 219 228 197 158 200 216 197 225 261 211 215 180 213 210 220 209 210 206
24 14 269 325 89 57 163 221 165 283 39 34 221 259 248 32 150 177 259 333 26 6 351 314 233 295 312 215 214 194 196 195 169 177 221 186 242 192 191 195 206 209 209 205 203
14 351 312 354 51 35 11 321 306 277 311 336 254 208 229 193 240 225 205 202 14 22 315 252 283 265 257 300 307 225 174 170 202 212 258 165 251 234 207 181 188 206 209 204 199
341 282 317 47 57 345 320 303 294 270 259 178 235 204 203 219 251 222 180 176 92 306 92 310 261 307 293 283 212 177 198 197 201 121 209 222 258 204 252 192 177 195 224 206 203
7 348 328 38 84 73 328 273 300 312 285 345 239 226 189 216 228 247 240 194 136 262 220 202 250 227 250 326 4 308 329 225 184 195 188 224 253 254 277 270 262 202 205 217 199
51 279 198 320 353 338 223 270 294 347 359 339 330 8 279 254 249 232 240 188 156 175 160 254 253 222 250 260 270 265 275 285 254 207 202 212 231 245 255 292 288 260 246 234 197
31 26 356 270 284 316 302 318 318 326 298 283 335 313 296 214 218 233 240 228 209 186 220 243 258 257 271 241 232 247 252 254 253 202 217 198 241 203 174 353 2 311 241 198 185
242 297 125 256 279 256 244 264 281 299 273 208 266 300 279 259 242 235 224 253 209 164 198 217 256 333 267 323 46 200 346 319 50 47 359 212 295 303 45 44 14 339 303 198 188